TimeMDT,TemperatureF,Dew PointF,Humidity,Sea Level PressureIn,VisibilityMPH,Wind Direction,Wind SpeedMPH,Gust SpeedMPH,PrecipitationIn,Events,Conditions,WindDirDegrees,DateUTC
12:15 AM,57.2,42.8,59,29.91,10.0,ESE,19.6,27.6,N/A,,Clear,120,2013-05-24 06:15:00
12:35 AM,57.2,42.8,59,29.90,10.0,ESE,20.7,28.8,N/A,,Clear,120,2013-05-24 06:35:00
12:55 AM,57.2,42.8,59,29.89,10.0,ESE,18.4,28.8,N/A,,Clear,120,2013-05-24 06:55:00
1:35 AM,55.4,42.8,63,29.88,10.0,ESE,15.0,20.7,N/A,,Partly Cloudy,120,2013-05-24 07:35:00
1:55 AM,57.2,42.8,59,29.88,10.0,SE,18.4,26.5,N/A,,Scattered Clouds,140,2013-05-24 07:55:00
2:15 AM,57.2,42.8,59,29.88,10.0,SE,24.2,27.6,N/A,,Mostly Cloudy,130,2013-05-24 08:15:00
2:35 AM,57.2,42.8,59,29.88,10.0,SE,18.4,29.9,N/A,,Overcast,130,2013-05-24 08:35:00
3:15 AM,57.2,42.8,59,29.86,10.0,SE,17.3,28.8,N/A,,Overcast,130,2013-05-24 09:15:00
3:35 AM,55.4,42.8,63,29.86,10.0,SE,19.6,25.3,N/A,,Overcast,140,2013-05-24 09:35:00
3:55 AM,55.4,44.6,67,29.85,10.0,SE,12.7,18.4,N/A,,Overcast,130,2013-05-24 09:55:00
4:15 AM,55.4,44.6,67,29.85,10.0,SE,12.7,24.2,N/A,,Overcast,140,2013-05-24 10:15:00
4:55 AM,55.4,44.6,67,29.83,10.0,SE,21.9,26.5,N/A,,Overcast,140,2013-05-24 10:55:00
5:15 AM,55.4,44.6,67,29.83,10.0,SSE,16.1,24.2,N/A,,Overcast,150,2013-05-24 11:15:00
6:15 AM,55.4,44.6,67,29.83,10.0,SE,10.4,-,N/A,,Overcast,140,2013-05-24 12:15:00
6:35 AM,55.4,44.6,67,29.83,10.0,SE,10.4,19.6,N/A,,Overcast,140,2013-05-24 12:35:00
6:55 AM,55.4,44.6,67,29.83,10.0,SSE,10.4,-,N/A,,Overcast,150,2013-05-24 12:55:00
7:15 AM,55.4,44.6,67,29.83,10.0,SSE,8.1,-,N/A,,Overcast,150,2013-05-24 13:15:00
7:35 AM,55.4,46.4,72,29.83,10.0,SE,9.2,-,N/A,,Overcast,140,2013-05-24 13:35:00
7:55 AM,55.4,46.4,72,29.83,10.0,SSE,9.2,-,N/A,,Overcast,150,2013-05-24 13:55:00
8:15 AM,55.4,46.4,72,29.83,10.0,SSE,12.7,-,N/A,,Overcast,150,2013-05-24 14:15:00
8:35 AM,57.2,46.4,67,29.83,10.0,SSE,11.5,-,N/A,,Overcast,150,2013-05-24 14:35:00
8:55 AM,59.0,48.2,67,29.84,10.0,SSE,13.8,-,N/A,,Overcast,160,2013-05-24 14:55:00
9:15 AM,57.2,48.2,72,29.84,10.0,SSE,11.5,-,N/A,,Overcast,150,2013-05-24 15:15:00
9:35 AM,57.2,48.2,72,29.86,10.0,South,8.1,-,N/A,,Overcast,180,2013-05-24 15:35:00
9:55 AM,57.2,48.2,72,29.87,10.0,South,10.4,-,N/A,,Overcast,190,2013-05-24 15:55:00
10:15 AM,57.2,48.2,72,29.87,10.0,SSW,10.4,-,N/A,,Overcast,200,2013-05-24 16:15:00
10:35 AM,55.4,46.4,72,29.89,10.0,West,24.2,32.2,N/A,,Overcast,280,2013-05-24 16:35:00
10:55 AM,55.4,44.6,67,29.90,10.0,WNW,21.9,-,N/A,,Overcast,290,2013-05-24 16:55:00
11:15 AM,55.4,44.6,67,29.90,10.0,WNW,12.7,-,N/A,,Overcast,300,2013-05-24 17:15:00
11:35 AM,57.2,44.6,63,29.89,10.0,NW,15.0,-,N/A,,Overcast,320,2013-05-24 17:35:00
11:55 AM,59.0,44.6,59,29.91,10.0,NW,10.4,-,N/A,,Overcast,320,2013-05-24 17:55:00
12:15 PM,60.8,46.4,59,29.92,10.0,West,12.7,-,N/A,,Mostly Cloudy,280,2013-05-24 18:15:00
12:35 PM,62.6,44.6,52,29.92,10.0,WNW,13.8,19.6,N/A,,Scattered Clouds,290,2013-05-24 18:35:00
1:15 PM,69.8,44.6,40,29.91,10.0,WSW,13.8,20.7,N/A,,Clear,250,2013-05-24 19:15:00
1:35 PM,69.8,41.0,35,29.91,10.0,West,11.5,20.7,N/A,,Clear,270,2013-05-24 19:35:00
1:55 PM,71.6,41.0,33,29.91,10.0,WSW,12.7,17.3,N/A,,Clear,250,2013-05-24 19:55:00
2:15 PM,71.6,42.8,35,29.91,10.0,WSW,10.4,17.3,N/A,,Clear,240,2013-05-24 20:15:00
2:35 PM,71.6,39.2,31,29.91,10.0,SW,15.0,19.6,N/A,,Clear,230,2013-05-24 20:35:00
2:55 PM,73.4,39.2,29,29.92,10.0,West,10.4,21.9,N/A,,Clear,280,2013-05-24 20:55:00
3:15 PM,73.4,39.2,29,29.92,10.0,West,15.0,24.2,N/A,,Clear,270,2013-05-24 21:15:00
3:35 PM,71.6,39.2,31,29.92,10.0,West,9.2,18.4,N/A,,Clear,260,2013-05-24 21:35:00
3:55 PM,71.6,39.2,31,29.92,10.0,West,17.3,24.2,N/A,,Clear,260,2013-05-24 21:55:00
4:55 PM,71.6,39.2,31,29.92,10.0,WNW,12.7,-,N/A,,Clear,290,2013-05-24 22:55:00
5:15 PM,71.6,37.4,29,29.93,10.0,WNW,9.2,-,N/A,,Clear,300,2013-05-24 23:15:00
5:35 PM,71.6,39.2,31,29.93,10.0,WNW,10.4,-,N/A,,Clear,300,2013-05-24 23:35:00
5:55 PM,69.8,39.2,33,29.94,10.0,WNW,6.9,-,N/A,,Clear,300,2013-05-24 23:55:00
6:15 PM,69.8,41.0,35,29.94,10.0,WNW,6.9,-,N/A,,Clear,300,2013-05-25 00:15:00
6:35 PM,69.8,39.2,33,29.94,10.0,NW,5.8,-,N/A,,Clear,310,2013-05-25 00:35:00
6:55 PM,68.0,41.0,37,29.95,10.0,NW,9.2,-,N/A,,Clear,310,2013-05-25 00:55:00
7:15 PM,66.2,42.8,43,29.96,10.0,NNW,9.2,-,N/A,,Clear,330,2013-05-25 01:15:00
7:35 PM,66.2,42.8,43,29.96,10.0,North,8.1,-,N/A,,Clear,350,2013-05-25 01:35:00
7:55 PM,64.4,42.8,45,29.97,10.0,NNW,8.1,-,N/A,,Clear,340,2013-05-25 01:55:00
8:15 PM,60.8,42.8,52,29.97,10.0,North,-9999.0,-,N/A,,Clear,0,2013-05-25 02:15:00
8:35 PM,57.2,42.8,59,29.97,10.0,North,9.2,-,N/A,,Clear,360,2013-05-25 02:35:00
8:55 PM,55.4,41.0,58,29.97,10.0,North,11.5,-,N/A,,Clear,360,2013-05-25 02:55:00
9:15 PM,55.4,39.2,54,29.98,10.0,North,8.1,-,N/A,,Clear,360,2013-05-25 03:15:00
9:35 PM,55.4,39.2,54,29.99,10.0,NNE,8.1,-,N/A,,Clear,30,2013-05-25 03:35:00
10:35 PM,53.6,41.0,62,30.01,10.0,NNE,6.9,-,N/A,,Clear,30,2013-05-25 04:35:00
10:55 PM,51.8,41.0,67,30.00,10.0,NE,9.2,-,N/A,,Clear,50,2013-05-25 04:55:00
11:15 PM,53.6,42.8,67,30.00,10.0,ENE,6.9,-,N/A,,Clear,60,2013-05-25 05:15:00
11:55 PM,53.6,42.8,67,30.01,10.0,ENE,9.2,-,N/A,,Scattered Clouds,60,2013-05-25 05:55:00